[Date Prev][Date Next][Thread Prev][Thread Next] - [Date Index][Thread Index][Author Index]
2 Line ISS Keps 6-29
- Subject: [sarex] 2 Line ISS Keps 6-29
- From: "Dave Larsen PhD" <doc@xxxxxxxxxxx>
- Date: Fri, 29 Jun 2001 04:01:08 -0700
ISS
1 25544U 98067A 01180.30258102 .00044356 00000-0 47488-3 0 1472
2 25544 51.5719 27.4065 0016282 220.5262 122.5328 15.63236032148964
----
Via the sarex mailing list at AMSAT.ORG courtesy of AMSAT-NA.
To unsubscribe, send "unsubscribe sarex" to Majordomo@amsat.org
AMSAT Home